Location: Arthez
(43.0833°N, 0.2500°W)
Time: 22:21:31
(UTC+00:00)

deb Kosmos-970 - Pass Details

Date: 24 August 2022
Orbit: 900 x 1112 km, 65.8° (Epoch: 28 September)

Event Time Altitude Azimuth Distance (km) Brightness Sun altitude
Rises 20:55:35 0° 330° (NNW) 3,946 ? -21.2°
Reaches altitude 10° 20:58:55 10° 343° (NNW) 2,977 ? -21.6°
Maximum altitude 21:04:30 24° 36° (NE) 2,077 ? -22.4°
Enters shadow 21:07:50 17° 73° (ENE) 2,407 ? -22.8°
